Date String (YYYY-MM-DD hh:mm:ss) UTC,Instrument flags,Ambient pressure (hPa),Sample flow (lpm),Bypass flow (lpm),Sample temperature (°C),Ambient temperature (°C),ASC tube jacket temperature (°C),LED temperature (°C),Box temperature (°C),Sample RH (%),Span deviation,Mass concentration (μg/m³),Mass concentration (μg/m³),Mass concentration (μg/m³)
DateTimeUTC,F1_M11,P_M11,Q1_M11,Q2_M11,T1_M11,T2_M11,T3_M11,T4_M11,T5_M11,U1_M11,ZSPAN_M11,X0_M11,X2_M11,X1_M11
2022-04-19 03:00:00,,0825.1,5.00,0.00,29.8,28.9,00.0,38.8,31.5,09.7,0000.0,0029.19,0007.08,0004.53
2022-04-19 03:01:00,,0825.1,5.01,0.00,29.8,28.9,00.0,38.8,31.5,09.7,0000.0,0028.55,0007.03,0004.52
2022-04-19 03:02:00,,0825.1,4.99,0.00,29.8,28.8,00.0,38.8,31.5,09.8,0000.0,0028.58,0006.99,0004.51
2022-04-19 03:03:00,,0825.1,4.99,0.00,29.8,28.8,00.0,38.8,31.5,09.8,0000.0,0029.26,0006.98,0004.50
2022-04-19 03:04:00,,0825.1,5.00,0.00,29.7,28.8,00.0,38.8,31.4,09.7,0000.0,0028.78,0006.89,0004.47
2022-04-19 03:05:00,,0825.1,5.00,0.00,29.7,28.8,00.0,38.8,31.4,09.8,0000.0,0025.12,0006.92,0004.47
2022-04-19 03:06:00,,0825.1,4.99,0.00,29.7,28.8,00.0,38.7,31.4,09.8,0000.0,0023.91,0006.84,0004.45
2022-04-19 03:07:00,,0825.1,5.02,0.00,29.7,28.8,00.0,38.7,31.4,09.8,0000.0,0025.14,0006.84,0004.44
2022-04-19 03:08:00,,0825.1,5.00,0.00,29.7,28.8,00.0,38.7,31.4,09.8,0000.0,0024.76,0006.81,0004.43
2022-04-19 03:09:00,,0825.1,4.99,0.00,29.7,28.8,00.0,38.7,31.4,09.9,0000.0,0024.49,0006.87,0004.42
2022-04-19 03:10:00,,0825.0,4.99,0.00,29.7,28.8,00.0,38.7,31.4,09.9,0000.0,0024.39,0006.85,0004.41
2022-04-19 03:11:00,,0825.1,5.00,0.00,29.7,28.8,00.0,38.7,31.4,09.9,0000.0,0024.66,0006.78,0004.39
2022-04-19 03:12:00,,0825.1,4.99,0.00,29.7,28.8,00.0,38.7,31.4,09.8,0000.0,0025.42,0006.80,0004.40
2022-04-19 03:13:00,,0825.1,4.99,0.00,29.7,28.8,00.0,38.7,31.4,09.8,0000.0,0025.51,0006.87,0004.41
2022-04-19 03:14:00,,0825.1,5.00,0.00,29.7,28.7,00.0,38.7,31.4,09.8,0000.0,0024.34,0006.91,0004.43
2022-04-19 03:15:00,,0825.1,5.01,0.00,29.6,28.7,00.0,38.7,31.3,09.9,0000.0,0024.00,0006.93,0004.43
2022-04-19 03:16:00,,0825.1,4.99,0.00,29.6,28.7,00.0,38.7,31.3,09.9,0000.0,0023.79,0006.91,0004.43
2022-04-19 03:17:00,,0825.1,4.99,0.00,29.6,28.7,00.0,38.6,31.3,09.9,0000.0,0024.62,0006.96,0004.44
2022-04-19 03:18:00,,0825.1,5.01,0.00,29.6,28.7,00.0,38.6,31.3,09.9,0000.0,0024.49,0006.91,0004.44
2022-04-19 03:19:00,,0825.0,5.00,0.00,29.6,28.7,00.0,38.6,31.3,09.8,0000.0,0024.74,0006.96,0004.45
2022-04-19 03:20:00,,0824.9,5.00,0.00,29.6,28.7,00.0,38.6,31.3,09.8,0000.0,0024.37,0006.96,0004.46
2022-04-19 03:21:00,,0824.9,4.99,0.00,29.6,28.7,00.0,38.6,31.3,09.9,0000.0,0025.34,0006.94,0004.47
2022-04-19 03:22:00,,0824.9,5.01,0.00,29.6,28.7,00.0,38.6,31.3,09.9,0000.0,0026.04,0007.02,0004.48
2022-04-19 03:23:00,,0824.9,5.01,0.00,29.6,28.7,00.0,38.6,31.3,09.9,0000.0,0025.53,0007.11,0004.49
2022-04-19 03:24:00,,0824.9,5.00,0.00,29.6,28.7,00.0,38.6,31.3,09.9,0000.0,0024.98,0007.10,0004.50
2022-04-19 03:25:00,,0825.0,4.99,0.00,29.5,28.7,00.0,38.6,31.3,09.9,0000.0,0025.04,0007.00,0004.48
2022-04-19 03:26:00,,0825.0,5.00,0.00,29.5,28.6,00.0,38.6,31.2,09.9,0000.0,0024.91,0007.05,0004.49
2022-04-19 03:27:00,,0825.1,5.01,0.00,29.5,28.6,00.0,38.6,31.2,09.9,0000.0,0025.60,0007.04,0004.50
2022-04-19 03:28:00,,0825.1,4.99,0.00,29.5,28.6,00.0,38.5,31.2,09.9,0000.0,0024.93,0007.02,0004.50
2022-04-19 03:29:00,,0825.1,4.99,0.00,29.5,28.6,00.0,38.5,31.2,09.9,0000.0,0024.01,0007.00,0004.49
2022-04-19 03:30:00,,0825.0,5.02,0.00,29.5,28.6,00.0,38.5,31.2,09.9,0000.0,0023.77,0006.95,0004.49
2022-04-19 03:31:00,,0825.0,4.99,0.00,29.5,28.6,00.0,38.5,31.2,09.9,0000.0,0023.14,0006.89,0004.49
2022-04-19 03:32:00,,0824.9,4.99,0.00,29.5,28.6,00.0,38.5,31.2,09.9,0000.0,0021.65,0006.83,0004.48
2022-04-19 03:33:00,,0824.9,5.02,0.00,29.5,28.6,00.0,38.5,31.2,09.9,0000.0,0020.43,0006.73,0004.49
2022-04-19 03:34:00,,0824.9,5.00,0.00,29.5,28.5,00.0,38.5,31.2,09.9,0000.0,0019.41,0006.64,0004.48
2022-04-19 03:35:00,,0824.9,4.99,0.00,29.5,28.5,00.0,38.5,31.2,09.9,0000.0,0019.26,0006.58,0004.46
2022-04-19 03:36:00,,0824.9,5.00,0.00,29.4,28.5,00.0,38.5,31.2,09.9,0000.0,0018.99,0006.67,0004.47
2022-04-19 03:37:00,,0824.9,5.02,0.00,29.4,28.5,00.0,38.5,31.1,09.9,0000.0,0019.03,0006.77,0004.48
2022-04-19 03:38:00,,0824.9,4.99,0.00,29.4,28.5,00.0,38.5,31.1,09.9,0000.0,0018.19,0006.78,0004.48
2022-04-19 03:39:00,,0824.9,4.99,0.00,29.4,28.5,00.0,38.4,31.1,09.9,0000.0,0017.87,0006.82,0004.49
2022-04-19 03:40:00,,0824.9,5.00,0.00,29.4,28.5,00.0,38.4,31.1,09.9,0000.0,0018.28,0006.84,0004.50
2022-04-19 03:41:00,,0824.9,5.00,0.00,29.4,28.5,00.0,38.4,31.1,09.9,0000.0,0017.98,0006.90,0004.50
2022-04-19 03:42:00,,0824.9,5.01,0.00,29.4,28.5,00.0,38.4,31.1,09.9,0000.0,0017.97,0006.94,0004.51
2022-04-19 03:43:00,,0824.9,5.01,0.00,29.4,28.5,00.0,38.4,31.1,09.9,0000.0,0018.16,0007.05,0004.53
2022-04-19 03:44:00,,0824.8,5.00,0.00,29.4,28.5,00.0,38.4,31.1,09.9,0000.0,0018.80,0007.06,0004.54
2022-04-19 03:45:00,,0824.8,5.00,0.00,29.4,28.5,00.0,38.4,31.1,09.9,0000.0,0019.77,0007.10,0004.56
2022-04-19 03:46:00,,0824.8,5.02,0.00,29.4,28.5,00.0,38.4,31.1,09.9,0000.0,0019.94,0007.10,0004.58
2022-04-19 03:47:00,,0824.8,4.99,0.00,29.3,28.4,00.0,38.4,31.1,09.9,0000.0,0020.14,0007.09,0004.60
2022-04-19 03:48:00,,0824.7,5.00,0.00,29.3,28.4,00.0,38.4,31.1,09.9,0000.0,0019.62,0007.04,0004.60
2022-04-19 03:49:00,,0824.7,4.99,0.00,29.3,28.4,00.0,38.4,31.0,09.9,0000.0,0020.43,0007.02,0004.60
2022-04-19 03:50:00,,0824.6,4.99,0.00,29.3,28.4,00.0,38.3,31.0,10.0,0000.0,0021.89,0007.01,0004.61
2022-04-19 03:51:00,,0824.6,5.01,0.00,29.3,28.4,00.0,38.3,31.0,10.0,0000.0,0021.52,0007.01,0004.62
2022-04-19 03:52:00,,0824.6,4.99,0.00,29.3,28.4,00.0,38.3,31.0,10.0,0000.0,0020.72,0007.01,0004.64
2022-04-19 03:53:00,,0824.6,4.99,0.00,29.3,28.4,00.0,38.3,31.0,10.0,0000.0,0020.41,0006.93,0004.63
2022-04-19 03:54:00,,0824.6,5.02,0.00,29.3,28.4,00.0,38.3,31.0,10.0,0000.0,0019.82,0006.84,0004.64
2022-04-19 03:55:00,,0824.6,5.00,0.00,29.3,28.4,00.0,38.3,31.0,10.0,0000.0,0020.18,0006.86,0004.64
2022-04-19 03:56:00,,0824.5,4.99,0.00,29.3,28.4,00.0,38.3,31.0,10.0,0000.0,0020.06,0006.88,0004.64
2022-04-19 03:57:00,,0824.5,5.02,0.00,29.3,28.4,00.0,38.3,31.0,10.0,0000.0,0020.28,0006.88,0004.63
2022-04-19 03:58:00,,0824.4,5.00,0.00,29.3,28.3,00.0,38.3,31.0,09.9,0000.0,0020.69,0006.94,0004.64
2022-04-19 03:59:00,,0824.4,4.99,0.00,29.3,28.3,00.0,38.3,31.0,10.0,0000.0,0020.96,0006.89,0004.65
